Weather in Ohotsk

Russia / Khabarovsk Krai     59°21′40″N   143°13′31″E
temp.,
°C
wind,
m/s
gust,
m/s
humid.,
%
clouds,
%
prec.,
mm/h
press.,
hPa
HPBL,
m
2 march, tue
tue201:00−16n3584100 0.0 1009115
04:00−17n5687100 0.1 1010170
07:00−17nne5695100 0.3 1012208
10:00−15e7994100 0.8 1013602
13:00−15e8992100 0.5 1015732
16:00−15ese7992100 0.9 1015891
19:00−16ese4795100 0.4 1016566
22:00−18se3497100 0.8 1017282
3 march, wed
wed301:00−19se3497100 0.3 1015283
04:00−20sse2297100 0.4 1014217
07:00−20ssw12100100 0.1 101377
10:00−20ssw2295100 0.3 1012231
13:00−19ssw3391100 0.2 1010410
16:00−18ssw4592100 0.3 1008434
19:00−19wsw2398100 0.0 100751
22:00−20wnw3398100 0.0 100640
4 march, thu
thu401:00−22nnw449645 0.0 100543
04:00−26n578522 0.0 100488
07:00−27nnw69820 0.0 1003139
10:00−26nnw711750 0.0 1002282
13:00−23nw68700 0.0 1001486
16:00−23nnw58740 0.0 1001326
19:00−26nnw45820 0.0 100164
22:00−27nw44840 0.0 100360
5 march, fri
fri501:00−28nnw68780 0.0 1003137
04:00−29nnw812730 0.0 1004209
07:00−31nnw811770 0.0 1005226
10:00−30nnw811740 0.0 1005304
13:00−27nnw710730 0.0 1005430
16:00−25nw58744 0.0 1005391
19:00−28nnw458558 0.0 100599
22:00−29nnw588069 0.0 1007186
6 march, sat
sat601:00−27nnw7117393 0.0 1008287
04:00−27nnw9127196 0.0 1009292
07:00−28nnw91372100 0.0 1012254
10:00−28nnw9117396 0.0 1013289
13:00−25nnw8117768 0.0 1013295
16:00−23nnw697634 0.0 1013262
19:00−26nnw57810 0.0 101498
22:00−27nnw711774 0.0 1015171